Weather History for KNYL - January, 2013

Change the Weather History Date:

Sunday, January 27, 2013

  Actual Average Record
Temperature  
Mean Temperature 62 °F 60 °F  
Max Temperature 70 °F 71 °F 82 °F (1986)
Min Temperature 54 °F 48 °F 29 °F (1937)
Degree Days  
Heating Degree Days 3 6  
Month to date heating degree days 244 182  
Since 1 July heating degree days 481 486  
Cooling Degree Days 0 0  
Month to date cooling degree days 3 0  
Year to date cooling degree days 3 0  
Growing Degree Days 12 (Base 50)    
Moisture  
Dew Point 53 °F    
Average Humidity 74    
Maximum Humidity 93    
Minimum Humidity 55    
Precipitation  
Precipitation 0.28 in 0.01 in 0.41 in (1983)
Month to date precipitation 1.02 0.33  
Year to date precipitation 1.02 0.33  
Sea Level Pressure  
Sea Level Pressure 29.94 in    
Wind  
Wind Speed 5 mph (SSW)    
Max Wind Speed 16 mph    
Max Gust Speed 20 mph    
Visibility 8 miles    
Events Rain , Thunderstorm    
T = Trace of Precipitation, MM = Missing Value Source: NWS Daily Summary

Daily Weather History Graph

Daily Weather History Graph

Search for Another Location

Airport or City:

Trip Planner

Search our weather history database for the weather conditions in past years. The results will help you decide how hot, cold, wet, or windy it might be!

Date:

Astronomy

Jan. 27, 2013 Rise Set
Actual Time 7:35 AM MST 6:06 PM MST
Civil Twilight 7:09 AM MST 6:33 PM MST
Nautical Twilight 6:40 AM MST 7:02 PM MST
Astronomical Twilight 6:11 AM MST 7:31 PM MST
Moon 6:59 PM MST (1/27) 7:36 AM MST (1/27)
Length of Visible Light 11h 23m
Length of Day
10h 30m
Full, 100% of the Moon is Illuminated
Jan 27
Full
Feb 3
Last Quarter
Feb 10
New
Feb 17
First Quarter
Feb 25
Full

Hourly Weather History & Observations

Time (MST) Temp. Dew Point Humidity Pressure Visibility Wind Dir Wind Speed Gust Speed Precip Events Conditions
12:55 AM 57.9 °F 54.0 °F 87% 29.96 in 10.0 mi Calm Calm - N/A   Scattered Clouds
1:55 AM 57.9 °F 55.0 °F 90% 29.96 in 10.0 mi Calm Calm - N/A   Mostly Cloudy
2:55 AM 57.9 °F 55.0 °F 90% 29.95 in 8.0 mi Calm Calm - N/A   Mostly Cloudy
3:55 AM 59.0 °F 55.0 °F 87% 29.95 in 10.0 mi Calm Calm - N/A   Mostly Cloudy
4:55 AM 57.9 °F 55.0 °F 90% 29.94 in 8.0 mi Calm Calm - N/A   Mostly Cloudy
5:55 AM 57.9 °F 55.0 °F 90% 29.94 in 7.0 mi Calm Calm - N/A   Mostly Cloudy
6:55 AM 57.9 °F 55.0 °F 90% 29.95 in 7.0 mi Calm Calm - N/A   Mostly Cloudy
7:55 AM 57.0 °F 54.0 °F 89% 29.96 in 4.0 mi Calm Calm - N/A   Mostly Cloudy
8:30 AM 57.2 °F 53.6 °F 88% 29.96 in 4.0 mi SSE 3.5 mph - N/A   Mostly Cloudy
8:47 AM 57.2 °F 53.6 °F 88% 29.96 in 4.0 mi South 3.5 mph - N/A   Mostly Cloudy
8:55 AM 57.9 °F 55.0 °F 90% 29.96 in 3.0 mi Calm Calm - N/A   Mostly Cloudy
9:55 AM 60.1 °F 55.9 °F 86% 29.98 in 4.0 mi South 5.8 mph - N/A   Mostly Cloudy
10:55 AM 64.0 °F 55.9 °F 75% 29.99 in 7.0 mi SSE 11.5 mph - N/A   Mostly Cloudy
11:55 AM 64.0 °F 55.9 °F 75% 29.98 in 10.0 mi South 8.1 mph - N/A   Mostly Cloudy
12:55 PM 64.9 °F 55.0 °F 70% 29.94 in 10.0 mi South 8.1 mph - N/A   Mostly Cloudy
1:55 PM 68.0 °F 55.0 °F 63% 29.92 in 10.0 mi SSE 11.5 mph - N/A   Scattered Clouds
2:00 PM - - N/A% - - North - - N/A   Unknown
2:55 PM 69.1 °F 54.0 °F 58% 29.90 in 10.0 mi SSW 8.1 mph - N/A   Scattered Clouds
3:55 PM 69.1 °F 54.0 °F 58% 29.88 in 10.0 mi South 9.2 mph - N/A   Scattered Clouds
4:55 PM 69.1 °F 53.1 °F 57% 29.88 in 10.0 mi South 9.2 mph - N/A   Mostly Cloudy
5:55 PM 66.9 °F 54.0 °F 63% 29.88 in 10.0 mi SSW 5.8 mph - N/A   Mostly Cloudy
6:55 PM 64.9 °F 55.9 °F 73% 29.89 in 10.0 mi SSE 5.8 mph - N/A   Mostly Cloudy
7:28 PM 62.6 °F 57.2 °F 82% 29.89 in 6.0 mi West 11.5 mph 19.6 mph 0.01 in Rain , Thunderstorm Light Thunderstorms and Rain
7:39 PM 57.2 °F 51.8 °F 82% 29.90 in 1.8 mi Variable 5.8 mph - 0.24 in Rain , Thunderstorm Heavy Thunderstorms and Rain
7:48 PM 57.2 °F 51.8 °F 82% 29.91 in 3.0 mi NNE 5.8 mph - 0.28 in Rain , Thunderstorm Light Thunderstorms and Rain
7:55 PM 57.9 °F 52.0 °F 81% 29.91 in 10.0 mi NNE 3.5 mph - 0.28 in Thunderstorm Thunderstorm
8:55 PM 57.9 °F 44.1 °F 60% 29.93 in 10.0 mi NW 10.4 mph - N/A   Mostly Cloudy
9:55 PM 57.0 °F 43.0 °F 59% 29.94 in 10.0 mi NNW 6.9 mph - N/A   Mostly Cloudy
10:55 PM 55.0 °F 39.0 °F 55% 29.95 in 10.0 mi WNW 12.7 mph - N/A   Mostly Cloudy
11:55 PM 54.0 °F 36.0 °F 51% 29.97 in 10.0 mi WNW 10.4 mph 18.4 mph N/A   Mostly Cloudy